CW4114 Weather Reports


time (UTC)temp
C
wind
direction
speed
KPH
gust
KPH
rain 1hr
cm
rain 24hr
cm
rain mn
cm
humidity
%
barometer
mb
20260502163849 6 25 3.2 14.5 0.00 0.00 0.00 74 1014.3
20260502163349 6 341 3.2 11.3 0.00 0.00 0.00 76 1014.3
20260502162848 6 5 3.2 11.3 0.00 0.00 0.00 75 1014.3
20260502162414 6 24 6.4 14.5 0.00 0.00 0.00 74 1014.4
20260502161846 6 323 6.4 14.5 0.00 0.00 0.00 75 1014.4
20260502161346 6 305 4.8 14.5 0.00 0.00 0.00 75 1014.4
20260502160847 6 333 6.4 14.5 0.00 0.00 0.00 75 1014.4
20260502160615 5 17 4.8 17.7 0.00 0.00 0.00 77 1014.4
20260502152333 5 353 6.4 14.5 0.00 0.00 0.00 77 1014.5
20260502151833 5 7 6.4 14.5 0.00 0.00 0.00 78 1014.6
20260502151333 5 38 4.8 14.5 0.00 0.00 0.00 79 1014.5
20260502150834 5 336 4.8 16.1 0.00 0.00 0.00 80 1014.5
20260502150334 5 11 9.7 16.1 0.00 0.00 0.00 78 1014.6
20260502130327 3 283 8.0 17.7 0.00 0.00 0.00 74 1015.4
20260502123326 3 331 4.8 19.3 0.00 0.00 0.00 75 1015.5
20260502122551 2 329 4.8 16.1 0.00 0.00 0.00 76 1015.4
20260502121824 2 305 6.4 17.7 0.00 0.00 0.00 77 1015.5
20260502121325 2 281 6.4 17.7 0.00 0.00 0.00 77 1015.4
20260502120825 2 313 4.8 17.7 0.00 0.00 0.00 77 1015.4
20260502120326 2 334 6.4 19.3 0.00 0.00 0.00 77 1015.4
20260502115825 2 305 8.0 19.3 0.00 0.00 0.00 79 1015.4
20260502115324 1 282 6.4 14.5 0.00 0.00 0.00 79 1015.4
20260502115054 1 283 6.4 14.5 0.00 0.00 0.00 80 1015.3
20260502114547 1 279 6.4 14.5 0.00 0.00 0.00 80 1015.4
20260502113823 1 295 6.4 14.5 0.00 0.00 0.00 81 1015.4
20260502113323 1 288 6.4 14.5 0.00 0.00 0.00 82 1015.3
20260502112823 0 331 4.8 14.5 0.00 0.00 0.00 82 1015.2
20260502112323 0 319 4.8 14.5 0.00 0.00 0.00 83 1015.2
20260502111822 0 309 6.4 14.5 0.00 0.00 0.00 83 1015.1
20260502111547 0 288 8.0 11.3 0.00 0.00 0.00 83 1015.1
20260502110822 0 290 6.4 11.3 0.00 0.00 0.00 83 1015.1
20260502110321 0 300 6.4 11.3 0.00 0.00 0.00 83 1015.1
20260502105823 0 264 6.4 11.3 0.00 0.00 0.00 83 1015.2
20260502105322 0 298 6.4 11.3 0.00 0.00 0.00 83 1015.1
20260502104822 0 279 6.4 14.5 0.00 0.00 0.00 83 1015.1
20260502104546 0 261 8.0 14.5 0.00 0.00 0.00 82 1015.1
20260502103822 0 272 4.8 17.7 0.00 0.00 0.00 82 1015.1
20260502103321 0 283 6.4 17.7 0.00 0.00 0.00 83 1015.1
20260502102821 0 282 6.4 17.7 0.00 0.00 0.00 83 1015.1
20260502101824 0 269 8.0 14.5 0.00 0.00 0.00 83 1015.1
20260502101323 0 264 6.4 14.5 0.00 0.00 0.00 83 1015.2
20260502100823 0 281 6.4 14.5 0.00 0.00 0.00 83 1015.1
20260502100321 0 265 6.4 14.5 0.00 0.00 0.00 83 1015.2
20260502091313 0 290 6.4 9.7 0.00 0.03 0.00 83 1014.8
20260502090812 0 265 4.8 11.3 0.00 0.03 0.00 83 1014.9
20260502090312 0 269 6.4 11.3 0.00 0.03 0.00 83 1014.8
20260502071250 0 275 3.2 6.4 0.00 0.03 0.00 80 1014.8
20260502070745 0 276 3.2 9.7 0.00 0.03 0.00 80 1014.8
20260502070249 1 274 4.8 9.7 0.00 0.03 0.00 79 1014.8
20260502065733 1 264 6.4 9.7 0.00 0.03 0.00 79 1014.8
20260502065233 1 290 4.8 9.7 0.00 0.03 0.00 79 1014.8
20260502064733 1 268 4.8 8.0 0.00 0.03 0.00 78 1014.9
20260502064233 1 281 4.8 8.0 0.00 0.03 0.00 78 1014.9
20260502063732 1 279 3.2 8.0 0.00 0.03 0.00 78 1014.9
20260502063232 1 307 3.2 6.4 0.00 0.03 0.00 77 1015.1
20260502063006 1 305 3.2 8.0 0.00 0.03 0.00 78 1015.1
20260502062235 1 293 3.2 9.7 0.00 0.03 0.00 77 1015.1
20260502061731 1 323 3.2 9.7 0.00 0.03 0.00 77 1015.2
20260502061232 1 292 4.8 11.3 0.00 0.03 0.00 77 1014.9
20260502060729 1 282 4.8 11.3 0.00 0.03 0.00 76 1015.1
20260502060234 2 307 4.8 16.1 0.00 0.03 0.00 75 1015.1
20260502055544 2 298 6.4 16.1 0.00 0.03 0.00 75 1014.9
20260502055043 2 295 8.0 14.5 0.00 0.03 0.00 76 1014.9
20260502054541 2 278 8.0 14.5 0.00 0.03 0.00 76 1014.9
20260502054042 2 337 6.4 16.1 0.00 0.03 0.00 76 1014.9
20260502053542 2 323 9.7 17.7 0.00 0.03 0.00 76 1015.1
20260502053046 2 357 6.4 17.7 0.00 0.03 0.00 76 1014.9
20260502052538 2 347 4.8 17.7 0.00 0.03 0.00 76 1015.1
20260502052039 2 320 6.4 17.7 0.00 0.03 0.00 76 1014.9
20260502051533 2 300 6.4 14.5 0.00 0.03 0.00 76 1015.1
20260502051033 2 345 4.8 14.5 0.00 0.03 0.00 76 1015.1
20260502050759 2 303 6.4 14.5 0.00 0.03 0.00 76 1015.1
20260502050252 2 348 9.7 17.7 0.00 0.03 0.00 76 1014.9
20260502045528 2 24 4.8 17.7 0.00 0.03 0.00 76 1014.9
20260502045025 2 2 8.0 16.1 0.00 0.03 0.00 77 1014.9
20260502044521 2 333 6.4 16.1 0.00 0.03 0.00 76 1015.1
20260502044020 2 313 9.7 22.5 0.00 0.03 0.00 76 1014.9
20260502043519 2 306 8.0 22.5 0.00 0.03 0.00 76 1014.9
20260502043023 2 330 6.4 17.7 0.00 0.03 0.00 76 1014.9
20260502042513 2 319 6.4 16.1 0.00 0.03 0.00 76 1014.9
20260502042247 2 338 8.0 17.7 0.00 0.03 0.00 75 1015.1
20260502041743 2 319 8.0 17.7 0.00 0.03 0.00 75 1014.9
20260502041239 2 37 6.4 14.5 0.00 0.03 0.00 75 1015.1
20260502040513 2 312 6.4 16.1 0.00 0.03 0.00 75 1015.1
20260502040240 2 0 6.4 16.1 0.00 0.03 0.00 76 1015.1
20260502035511 2 330 4.8 16.1 0.00 0.03 0.03 76 1015.1
20260502035011 2 338 6.4 16.1 0.00 0.03 0.03 76 1015.1
20260502034514 2 348 4.8 14.5 0.00 0.03 0.03 76 1015.1
20260502034011 2 5 8.0 14.5 0.00 0.03 0.03 76 1015.1
20260502033511 2 330 6.4 11.3 0.00 0.03 0.03 76 1015.1
20260502033233 2 296 4.8 14.5 0.00 0.03 0.03 76 1015.1
20260502032509 2 336 8.0 14.5 0.00 0.03 0.03 77 1015.1
20260502032009 2 341 6.4 14.5 0.00 0.03 0.03 78 1015.1
20260502031733 2 340 6.4 14.5 0.00 0.03 0.03 78 1015.2
20260502031009 2 358 6.4 14.5 0.00 0.03 0.03 78 1015.1
20260502030743 2 317 4.8 9.7 0.00 0.03 0.03 78 1015.1
20260502030008 2 344 6.4 11.3 0.00 0.03 0.03 78 1015.1
20260502025508 2 322 3.2 16.1 0.00 0.03 0.03 78 1015.1
20260502025240 2 309 8.0 16.1 0.00 0.03 0.03 77 1015.2
20260502024510 2 347 3.2 16.1 0.00 0.03 0.03 76 1015.2
20260502024235 2 24 4.8 16.1 0.00 0.03 0.03 75 1015.1
20260502023507 2 338 6.4 16.1 0.00 0.03 0.03 75 1015.2
20260502022507 2 320 8.0 17.7 0.00 0.03 0.03 75 1015.2
20260502022007 2 303 6.4 16.1 0.00 0.03 0.03 74 1015.2
20260502021507 2 305 8.0 17.7 0.00 0.03 0.03 75 1015.1
20260502021007 2 299 4.8 17.7 0.00 0.03 0.03 76 1015.1
20260502020510 2 2 4.8 14.5 0.00 0.03 0.03 76 1015.2
20260502020008 2 340 4.8 14.5 0.00 0.03 0.03 77 1015.1
20260502015506 2 326 6.4 14.5 0.00 0.03 0.03 78 1015.1
20260502015008 2 341 3.2 11.3 0.00 0.03 0.03 79 1014.9
20260502014506 2 8 6.4 11.3 0.00 0.03 0.03 80 1014.9
20260502014010 2 338 4.8 9.7 0.00 0.03 0.03 80 1015.1
20260502013507 2 334 4.8 9.7 0.00 0.03 0.03 79 1015.1
20260502013008 2 344 4.8 9.7 0.00 0.03 0.03 79 1014.9
20260502012505 2 340 6.4 9.7 0.00 0.03 0.03 79 1014.9
20260502012010 2 310 4.8 8.0 0.00 0.03 0.03 78 1014.8
20260502011509 2 341 3.2 8.0 0.00 0.03 0.03 77 1014.7
20260502011007 2 324 3.2 6.4 0.00 0.03 0.03 76 1014.8
20260502010506 3 290 3.2 9.7 0.00 0.03 0.03 75 1014.8
20260502010006 3 331 4.8 9.7 0.00 0.03 0.03 74 1014.7
20260502005507 3 344 4.8 16.1 0.00 0.03 0.03 74 1014.7
20260502004504 3 341 4.8 16.1 0.00 0.03 0.03 73 1014.5
20260502004006 3 358 6.4 14.5 0.00 0.03 0.03 72 1014.5
20260502003505 3 338 6.4 14.5 0.00 0.03 0.03 71 1014.5
20260502003239 3 295 6.4 14.5 0.00 0.03 0.03 70 1014.5
20260502002506 3 348 4.8 14.5 0.00 0.03 0.03 70 1014.5
20260502002004 3 350 4.8 11.3 0.00 0.03 0.03 69 1014.4
20260502001504 3 329 6.4 11.3 0.00 0.03 0.03 69 1014.4
20260502001005 3 341 4.8 16.1 0.00 0.03 0.03 68 1014.3
20260502000503 3 345 6.4 16.1 0.00 0.03 0.03 69 1014.3
20260502000005 3 338 8.0 16.1 0.00 0.03 0.03 70 1014.3
20260501235503 3 21 6.4 11.3 0.00 0.03 0.03 72 1014.3
20260501235004 3 348 3.2 11.3 0.00 0.03 0.03 72 1014.2
20260501234503 3 358 3.2 11.3 0.00 0.03 0.03 69 1014.1
20260501234235 3 21 1.6 8.0 0.00 0.03 0.03 68 1014.1
20260501233501 3 8 3.2 8.0 0.00 0.03 0.03 69 1014.1
20260501233003 3 353 4.8 8.0 0.00 0.03 0.03 70 1014.1
20260501232502 3 316 3.2 8.0 0.00 0.03 0.03 70 1014.0
20260501232003 3 330 3.2 8.0 0.00 0.03 0.03 70 1014.1
20260501231502 3 24 3.2 9.7 0.00 0.03 0.03 68 1014.1
20260501231003 3 358 3.2 9.7 0.00 0.03 0.03 67 1014.1
20260501230501 3 348 3.2 8.0 0.00 0.03 0.03 67 1014.1
20260501230001 3 11 4.8 9.7 0.00 0.03 0.03 67 1014.0
20260501224958 4 320 4.8 11.3 0.00 0.03 0.03 65 1014.0
20260501224501 4 7 3.2 9.7 0.00 0.03 0.03 65 1014.0
20260501223958 4 1 1.6 9.7 0.00 0.03 0.03 65 1014.0
20260501223456 4 316 3.2 9.7 0.00 0.03 0.03 64 1014.0
20260501222953 4 313 1.6 8.0 0.00 0.03 0.03 64 1013.9
20260501222451 4 7 3.2 11.3 0.00 0.03 0.03 63 1013.8
20260501221951 4 355 4.8 11.3 0.00 0.03 0.03 64 1013.9
20260501220948 4 21 3.2 9.7 0.00 0.03 0.03 64 1013.8
20260501220449 4 353 4.8 9.7 0.00 0.03 0.03 64 1013.8
20260501215948 4 341 3.2 11.3 0.00 0.03 0.03 64 1013.8
20260501215446 4 305 6.4 11.3 0.00 0.03 0.03 64 1013.8
20260501214946 4 295 3.2 11.3 0.00 0.03 0.03 66 1013.8
20260501214446 4 314 1.6 11.3 0.00 0.03 0.03 68 1013.7
20260501213944 4 336 4.8 11.3 0.00 0.03 0.03 69 1013.7
20260501213448 4 350 6.4 11.3 0.00 0.03 0.03 70 1013.7
20260501212943 4 331 3.2 11.3 0.00 0.03 0.03 71 1013.7
20260501212447 4 320 6.4 11.3 0.00 0.03 0.03 71 1013.6
20260501212018 4 327 6.4 11.3 0.00 0.03 0.03 71 1013.6
20260501211552 4 322 6.4 11.3 0.00 0.05 0.03 71 1013.6
20260501210935 4 333 6.4 11.3 0.00 0.05 0.03 71 1013.6
20260501210436 4 355 4.8 11.3 0.00 0.05 0.03 73 1013.6
20260501205935 4 327 4.8 14.5 0.00 0.05 0.03 72 1013.6
20260501205434 4 8 6.4 14.5 0.00 0.05 0.03 73 1013.5
20260501204934 4 4 4.8 16.1 0.00 0.05 0.03 72 1013.5
20260501203939 5 9 6.4 16.1 0.00 0.08 0.03 69 1013.4
20260501203433 5 32 3.2 20.9 0.00 0.08 0.03 69 1013.4
20260501202932 5 9 8.0 22.5 0.00 0.08 0.03 68 1013.4
20260501202432 5 0 11.3 22.5 0.00 0.08 0.03 66 1013.5
20260501201933 5 14 9.7 17.7 0.00 0.08 0.03 64 1013.3
20260501201701 5 350 4.8 25.7 0.00 0.08 0.03 61 1013.3
20260501201026 5 330 11.3 24.1 0.00 0.08 0.03 55 1013.2
20260501200947 5 314 12.9 25.7 0.00 0.08 0.03 57 1013.3
20260501200611 5 322 12.9 24.1 0.00 0.08 0.03 57 1013.3
20260501195432 5 312 8.0 20.9 0.00 0.08 0.03 55 1013.1
20260501194933 5 303 8.0 17.7 0.00 0.08 0.03 52 1013.1
20260501194435 5 341 8.0 22.5 0.00 0.08 0.03 57 1013.2
20260501193932 5 8 9.7 22.5 0.00 0.08 0.03 58 1013.1
20260501193700 5 14 8.0 19.3 0.00 0.08 0.03 58 1013.2
20260501192932 5 324 8.0 19.3 0.00 0.08 0.03 60 1013.1
20260501192700 5 351 8.0 19.3 0.00 0.08 0.03 60 1013.2
20260501191932 5 0 8.0 19.3 0.00 0.08 0.03 61 1013.1
20260501191654 5 351 8.0 19.3 0.00 0.08 0.03 64 1013.2
20260501190926 5 8 9.7 19.3 0.00 0.08 0.03 64 1013.1
20260501190651 5 289 6.4 17.7 0.00 0.08 0.03 65 1013.1
20260501185923 5 300 6.4 19.3 0.00 0.08 0.03 66 1013.1
20260501185422 5 323 9.7 19.3 0.00 0.08 0.03 66 1013.1
20260501184921 5 9 6.4 19.3 0.00 0.08 0.03 65 1013.1
20260501184420 5 354 8.0 20.9 0.00 0.08 0.03 64 1013.2
20260501183920 5 2 9.7 20.9 0.00 0.08 0.03 65 1013.1
20260501183414 5 330 6.4 22.5 0.00 0.08 0.03 66 1013.2
20260501183204 5 320 6.4 19.3 0.00 0.08 0.03 68 1013.1
20260501182415 5 345 6.4 19.3 0.00 0.08 0.03 67 1013.0
20260501181914 5 333 4.8 17.7 0.00 0.08 0.03 68 1013.1
20260501181450 5 357 9.7 17.7 0.00 0.08 0.03 67 1013.1
20260501180911 5 54 8.0 17.7 0.00 0.08 0.03 67 1013.1
20260501180410 5 320 9.7 20.9 0.00 0.08 0.03 66 1013.1
20260501175907 4 354 6.4 20.9 0.00 0.08 0.03 66 1013.2
20260501175407 5 344 9.7 20.9 0.00 0.08 0.03 66 1013.1
20260501174907 4 344 9.7 20.9 0.00 0.08 0.03 66 1013.1
20260501174405 4 327 8.0 20.9 0.00 0.08 0.03 65 1013.1
20260501174136 5 329 9.7 20.9 0.00 0.08 0.03 64 1013.2
20260501173405 5 5 12.9 20.9 0.00 0.08 0.03 65 1013.2
20260501172904 5 313 8.0 20.9 0.00 0.08 0.03 65 1013.2
20260501172404 5 338 9.7 20.9 0.00 0.08 0.03 66 1013.2
20260501171904 5 14 11.3 25.7 0.00 0.08 0.03 67 1013.2
20260501171643 5 340 11.3 25.7 0.00 0.08 0.03 65 1013.2